DW8024 Weather Reports


Display with metric or nautical units.
time (UTC)temp
F
wind
direction
speed
MPH
gust
MPH
rain 1hr
in
rain 24hr
in
rain mn
in
humidity
%
barometer
mb
20190319054958 46 0 0.0 3.0 0.00 0.15 0.00 95 1023.5
20190319054501 46 190 1.0 3.0 0.00 0.15 0.00 95 1023.5
20190319053958 46 190 1.0 3.0 0.00 0.15 0.00 95 1023.5
20190319053458 46 190 1.0 2.0 0.00 0.15 0.00 95 1023.5
20190319053001 46 190 1.0 2.0 0.00 0.15 0.00 95 1023.5
20190319052458 46 211 1.0 3.0 0.00 0.15 0.00 95 1023.4
20190319051958 46 219 1.0 3.0 0.00 0.15 0.00 95 1023.4
20190319051502 46 0 0.0 2.0 0.00 0.15 0.00 95 1023.3
20190319050958 46 0 0.0 1.0 0.00 0.15 0.00 95 1023.4
20190319050457 46 0 0.0 1.0 0.00 0.15 0.00 95 1023.4
20190319050001 46 0 0.0 1.0 0.00 0.15 0.00 95 1023.5
20190319045458 46 0 0.0 1.0 0.00 0.15 0.00 95 1023.5
20190319044958 46 0 0.0 1.0 0.00 0.15 0.00 95 1023.4
20190319044502 46 217 1.0 4.0 0.00 0.15 0.00 95 1023.5
20190319043958 46 207 1.0 4.0 0.00 0.15 0.00 95 1023.4
20190319043458 46 0 0.0 3.0 0.00 0.15 0.00 95 1023.3
20190319043001 46 0 0.0 2.0 0.00 0.15 0.00 95 1023.2
20190319042458 46 193 1.0 3.0 0.00 0.15 0.00 95 1023.2
20190319041958 46 191 1.0 3.0 0.00 0.15 0.00 95 1023.1
20190319041501 46 188 1.0 4.0 0.00 0.15 0.00 95 1023.0
20190319040958 46 181 1.0 4.0 0.00 0.15 0.00 95 1023.0
20190319040458 46 173 1.0 3.0 0.00 0.15 0.00 95 1023.0
20190319040001 46 173 2.0 4.0 0.00 0.15 0.00 95 1023.0
20190319035458 46 179 2.0 4.0 0.00 0.15 0.00 95 1023.0
20190319034957 46 0 0.0 4.0 0.00 0.15 0.00 95 1023.0
20190319034501 46 0 0.0 0.0 0.00 0.15 0.00 95 1023.0
20190319033958 46 0 0.0 0.0 0.00 0.15 0.00 95 1023.0
20190319033457 46 0 0.0 0.0 0.00 0.15 0.00 95 1023.0
20190319033001 46 0 0.0 0.0 0.00 0.15 0.00 95 1022.9
20190319032457 46 0 0.0 0.0 0.00 0.15 0.00 95 1022.9
20190319031958 46 0 0.0 0.0 0.00 0.15 0.00 95 1022.8
20190319031502 46 0 0.0 1.0 0.00 0.15 0.00 95 1022.8
20190319030958 46 0 0.0 1.0 0.00 0.15 0.00 95 1022.7
20190319030458 46 0 0.0 2.0 0.00 0.15 0.00 95 1022.7
20190319030000 46 217 1.0 4.0 0.00 0.15 0.00 95 1022.8
20190319025458 46 217 1.0 4.0 0.00 0.15 0.00 95 1022.8
20190319024957 46 0 0.0 0.0 0.00 0.15 0.00 95 1022.8
20190319024501 46 0 0.0 0.0 0.00 0.15 0.00 95 1022.8
20190319023958 46 0 0.0 0.0 0.00 0.15 0.00 95 1022.8
20190319023457 46 0 0.0 0.0 0.00 0.15 0.00 95 1022.9
20190319023001 46 0 0.0 0.0 0.00 0.15 0.00 95 1022.8
20190319022457 46 0 0.0 0.0 0.00 0.15 0.00 95 1022.8
20190319021958 46 0 0.0 0.0 0.00 0.15 0.00 95 1022.8
20190319021500 46 0 0.0 0.0 0.00 0.15 0.00 95 1022.8
20190319020958 46 0 0.0 0.0 0.00 0.15 0.00 95 1022.8
20190319020457 46 0 0.0 0.0 0.00 0.15 0.00 95 1022.8
20190319020001 46 0 0.0 0.0 0.00 0.15 0.00 95 1022.8
20190319015458 46 0 0.0 0.0 0.00 0.15 0.00 95 1022.8
20190319014957 46 0 0.0 0.0 0.00 0.15 0.00 95 1022.9
20190319014501 46 0 0.0 0.0 0.00 0.15 0.00 95 1022.9
20190319013957 46 0 0.0 0.0 0.00 0.15 0.00 95 1022.8
20190319013458 46 0 0.0 0.0 0.00 0.15 0.00 95 1022.7
20190319013000 46 0 0.0 0.0 0.00 0.15 0.00 95 1022.7
20190319012458 46 0 0.0 0.0 0.00 0.15 0.00 95 1022.7
20190319011957 46 0 0.0 0.0 0.00 0.15 0.00 95 1022.7
20190319011501 46 0 0.0 0.0 0.00 0.15 0.00 95 1022.7
20190319010957 46 0 0.0 0.0 0.00 0.15 0.00 95 1022.6
20190319010457 46 0 0.0 0.0 0.00 0.15 0.00 95 1022.6
20190319010001 46 0 0.0 0.0 0.00 0.15 0.00 95 1022.6
20190319005457 46 0 0.0 0.0 0.00 0.15 0.00 95 1022.7
20190319004958 46 0 0.0 0.0 0.00 0.15 0.00 95 1022.6
20190319004500 46 0 0.0 0.0 0.00 0.15 0.00 95 1022.5
20190319003957 46 0 0.0 0.0 0.00 0.15 0.00 95 1022.5
20190319003458 46 0 0.0 0.0 0.00 0.15 0.00 95 1022.4
20190319003002 46 0 0.0 0.0 0.00 0.15 0.00 95 1022.4
20190319002457 46 0 0.0 2.0 0.00 0.15 0.00 95 1022.4
20190319001958 46 0 0.0 2.0 0.00 0.15 0.00 95 1022.4
20190319001500 46 215 1.0 2.0 0.00 0.15 0.00 95 1022.4
20190319000958 46 0 0.0 2.0 0.00 0.15 0.00 95 1022.4
20190319000457 46 0 0.0 3.0 0.00 0.15 0.00 95 1022.4
20190319000004 46 0 0.0 3.0 0.00 0.15 0.00 95 1022.4
20190318235457 46 0 0.0 2.0 0.00 0.15 0.15 95 1022.4
20190318234958 46 0 0.0 2.0 0.00 0.15 0.15 95 1022.4
20190318234500 46 214 1.0 2.0 0.00 0.15 0.15 95 1022.3
20190318233957 46 215 1.0 2.0 0.00 0.15 0.15 95 1022.3
20190318233457 46 0 0.0 2.0 0.00 0.15 0.15 95 1022.2
20190318233000 46 0 0.0 3.0 0.00 0.15 0.15 95 1022.2
20190318232457 46 215 1.0 3.0 0.00 0.15 0.15 95 1022.1
20190318231957 46 215 1.0 3.0 0.00 0.15 0.15 95 1022.1
20190318231501 46 0 0.0 2.0 0.00 0.15 0.15 95 1022.1
20190318230957 46 215 1.0 3.0 0.00 0.15 0.15 95 1022.0
20190318230457 46 215 1.0 3.0 0.00 0.15 0.15 95 1022.0
20190318230000 46 0 0.0 2.0 0.00 0.15 0.15 95 1022.0
20190318225457 46 214 1.0 4.0 0.00 0.15 0.15 95 1022.0
20190318224957 46 212 1.0 4.0 0.00 0.15 0.15 95 1022.0
20190318224501 46 206 1.0 4.0 0.00 0.15 0.15 95 1021.9
20190318223957 46 201 2.0 4.0 0.00 0.15 0.15 95 1021.9
20190318223457 46 202 2.0 4.0 0.00 0.15 0.15 95 1021.9
20190318223000 46 200 2.0 4.0 0.00 0.15 0.15 95 1021.8
20190318222457 46 199 2.0 6.0 0.00 0.15 0.15 95 1021.8
20190318221957 46 206 2.0 6.0 0.00 0.15 0.15 95 1021.7
20190318221500 46 206 2.0 6.0 0.00 0.15 0.15 95 1021.7
20190318220958 46 204 2.0 3.0 0.00 0.15 0.15 95 1021.7
20190318220457 46 201 2.0 3.0 0.00 0.15 0.15 95 1021.7
20190318220001 46 192 2.0 4.0 0.00 0.15 0.15 95 1021.6
20190318215457 46 195 2.0 6.0 0.01 0.15 0.15 95 1021.6
20190318214957 46 203 2.0 6.0 0.01 0.15 0.15 95 1021.6
20190318214501 46 206 2.0 5.0 0.01 0.15 0.15 95 1021.6
20190318213957 46 213 2.0 5.0 0.01 0.15 0.15 95 1021.6
20190318213457 46 219 1.0 5.0 0.01 0.15 0.15 95 1021.5
20190318213000 46 196 2.0 6.0 0.01 0.15 0.15 95 1021.6
20190318212458 46 188 2.0 6.0 0.01 0.15 0.15 95 1021.6
20190318211957 46 185 3.0 7.0 0.02 0.15 0.15 95 1021.6
20190318211501 46 176 3.0 7.0 0.02 0.15 0.15 95 1021.6
20190318210957 46 175 4.0 7.0 0.02 0.15 0.15 95 1021.5
20190318210456 46 177 4.0 7.0 0.03 0.15 0.15 95 1021.4
20190318210000 46 174 4.0 7.0 0.03 0.15 0.15 95 1021.4
20190318205457 46 171 4.0 7.0 0.02 0.14 0.14 95 1021.4
20190318204957 46 172 3.0 7.0 0.02 0.14 0.14 94 1021.4
20190318204500 46 173 2.0 5.0 0.02 0.14 0.14 94 1021.3
20190318203957 46 176 2.0 4.0 0.02 0.14 0.14 94 1021.4
20190318203457 46 178 3.0 5.0 0.02 0.14 0.14 94 1021.4
20190318203001 46 174 3.0 5.0 0.02 0.14 0.14 94 1021.3
20190318202457 46 173 3.0 6.0 0.02 0.14 0.14 94 1021.3
20190318201957 46 175 4.0 7.0 0.01 0.13 0.13 94 1021.3
20190318201501 46 173 4.0 7.0 0.01 0.13 0.13 94 1021.3
20190318200957 46 172 5.0 9.0 0.02 0.13 0.13 94 1021.2
20190318200458 46 172 5.0 9.0 0.01 0.12 0.12 94 1021.2
20190318200000 46 173 4.0 9.0 0.01 0.12 0.12 94 1021.1
20190318195457 46 172 3.0 6.0 0.01 0.12 0.12 94 1021.1
20190318194957 46 181 3.0 7.0 0.01 0.12 0.12 94 1021.1
20190318194500 46 189 4.0 8.0 0.01 0.12 0.12 94 1021.0
20190318193957 46 185 4.0 8.0 0.01 0.12 0.12 94 1021.0
20190318193457 46 178 3.0 6.0 0.01 0.12 0.12 94 1020.9
20190318193000 46 175 3.0 5.0 0.01 0.12 0.12 94 1020.9
20190318192457 46 173 3.0 5.0 0.01 0.12 0.12 94 1020.8
20190318191956 46 175 3.0 7.0 0.01 0.12 0.12 94 1020.8
20190318191500 46 178 3.0 7.0 0.01 0.12 0.12 94 1020.7
20190318190956 46 177 3.0 6.0 0.00 0.11 0.11 93 1020.7
20190318190457 46 175 3.0 6.0 0.00 0.11 0.11 93 1020.7
20190318190000 46 174 3.0 6.0 0.00 0.11 0.11 93 1020.7
20190318185457 46 178 3.0 6.0 0.00 0.11 0.11 93 1020.6
20190318184957 46 185 3.0 4.0 0.00 0.11 0.11 93 1020.6
20190318184500 46 193 3.0 4.0 0.00 0.11 0.11 93 1020.6
20190318183957 46 199 2.0 4.0 0.01 0.11 0.11 93 1020.5
20190318183456 46 199 2.0 4.0 0.01 0.11 0.11 93 1020.5
20190318183000 46 198 2.0 4.0 0.01 0.11 0.11 93 1020.5
20190318182456 46 197 2.0 5.0 0.01 0.11 0.11 93 1020.4
20190318181957 46 195 2.0 5.0 0.01 0.11 0.11 93 1020.4
20190318181500 46 190 2.0 4.0 0.01 0.11 0.11 93 1020.4
20190318180957 46 190 2.0 4.0 0.01 0.11 0.11 92 1020.4
20190318180456 46 191 2.0 4.0 0.01 0.11 0.11 92 1020.2
20190318180002 46 191 1.0 4.0 0.01 0.11 0.11 92 1020.2
20190318175457 46 187 1.0 3.0 0.01 0.11 0.11 92 1020.2
20190318174957 46 188 2.0 4.0 0.01 0.11 0.11 92 1020.2
20190318174500 46 188 3.0 4.0 0.01 0.11 0.11 92 1020.1
20190318173957 46 189 2.0 4.0 0.01 0.10 0.10 92 1020.0
20190318173457 46 194 2.0 4.0 0.01 0.10 0.10 92 1019.9
20190318173000 46 203 2.0 4.0 0.01 0.10 0.10 92 1019.9
20190318172456 46 204 2.0 4.0 0.02 0.10 0.10 92 1020.0
20190318171956 46 200 1.0 3.0 0.02 0.10 0.10 92 1019.9
20190318171500 46 197 2.0 6.0 0.02 0.10 0.10 92 1019.9
20190318170957 46 194 3.0 6.0 0.02 0.10 0.10 92 1019.9
20190318170457 46 195 3.0 6.0 0.02 0.10 0.10 92 1019.8
20190318170000 46 191 3.0 7.0 0.02 0.10 0.10 92 1019.7
20190318165456 46 191 3.0 7.0 0.02 0.10 0.10 92 1019.7
20190318164957 46 203 2.0 6.0 0.02 0.10 0.10 92 1019.7
20190318164500 46 214 2.0 6.0 0.03 0.10 0.10 92 1019.6
20190318163956 46 214 2.0 6.0 0.02 0.09 0.09 92 1019.6
20190318163456 46 209 2.0 7.0 0.02 0.09 0.09 92 1019.6
20190318162959 46 203 3.0 7.0 0.01 0.08 0.08 92 1019.6
20190318162457 46 200 3.0 7.0 0.01 0.08 0.08 91 1019.6
20190318161956 46 203 2.0 7.0 0.01 0.08 0.08 91 1019.5
20190318161500 46 198 3.0 7.0 0.01 0.08 0.08 91 1019.4
20190318160956 46 191 4.0 8.0 0.01 0.08 0.08 92 1019.4
20190318160457 46 192 3.0 8.0 0.01 0.08 0.08 92 1019.4
20190318155959 46 207 2.0 4.0 0.01 0.08 0.08 91 1019.3
20190318155456 46 234 1.0 5.0 0.01 0.08 0.08 91 1019.3
20190318154956 46 222 2.0 7.0 0.01 0.08 0.08 91 1019.4
20190318154500 46 218 2.0 7.0 0.01 0.07 0.07 91 1019.4
20190318153956 47 228 2.0 6.0 0.01 0.07 0.07 91 1019.4
20190318153456 47 245 2.0 5.0 0.02 0.07 0.07 91 1019.4
20190318152959 47 255 1.0 4.0 0.02 0.07 0.07 91 1019.4
20190318152456 47 0 0.0 4.0 0.02 0.07 0.07 92 1019.3
20190318151956 47 0 0.0 2.0 0.02 0.07 0.07 92 1019.3
20190318151459 47 275 1.0 4.0 0.02 0.07 0.07 92 1019.3
20190318150957 47 246 2.0 4.0 0.02 0.07 0.07 92 1019.3
20190318150456 47 231 2.0 4.0 0.02 0.07 0.07 92 1019.3
20190318150000 46 229 1.0 4.0 0.03 0.07 0.07 92 1019.3
20190318145456 46 242 1.0 3.0 0.03 0.07 0.07 91 1019.3
20190318144956 46 260 2.0 4.0 0.04 0.07 0.07 91 1019.3
20190318144500 46 264 2.0 4.0 0.03 0.06 0.06 91 1019.3
20190318143956 46 257 2.0 4.0 0.03 0.06 0.06 91 1019.3
20190318143457 46 252 2.0 4.0 0.02 0.05 0.05 91 1019.2
20190318142959 46 264 1.0 4.0 0.03 0.05 0.05 91 1019.2
20190318142457 46 297 1.0 3.0 0.03 0.05 0.05 91 1019.2
20190318141956 46 0 0.0 2.0 0.03 0.05 0.05 91 1019.1
20190318141500 46 310 1.0 3.0 0.03 0.05 0.05 91 1019.1
20190318140956 46 314 2.0 4.0 0.04 0.05 0.05 91 1019.1
20190318140456 45 314 2.0 4.0 0.04 0.05 0.05 91 1019.2
20190318140000 45 298 2.0 4.0 0.03 0.04 0.04 90 1019.1
20190318135456 46 271 1.0 4.0 0.03 0.04 0.04 90 1019.1
20190318134956 46 277 1.0 4.0 0.02 0.03 0.03 90 1019.2
20190318134459 46 299 1.0 3.0 0.02 0.03 0.03 89 1019.1
20190318133956 46 281 2.0 6.0 0.02 0.03 0.03 89 1019.1
20190318133456 46 275 3.0 8.0 0.02 0.03 0.03 88 1019.2
20190318132959 46 271 3.0 8.0 0.01 0.02 0.02 88 1019.2
20190318132456 46 254 2.0 8.0 0.01 0.02 0.02 88 1019.1
20190318131956 46 242 2.0 8.0 0.01 0.02 0.02 88 1019.1
20190318131459 46 247 2.0 6.0 0.00 0.02 0.01 88 1019.0
20190318130956 46 262 2.0 8.0 0.00 0.02 0.01 88 1019.1
20190318130456 46 259 3.0 8.0 0.00 0.02 0.01 87 1019.1
20190318125959 46 255 3.0 6.0 0.00 0.02 0.01 87 1019.2
20190318125456 46 260 2.0 5.0 0.00 0.02 0.01 88 1019.1
20190318124956 46 267 2.0 5.0 0.00 0.02 0.01 88 1019.1
20190318124500 46 271 3.0 6.0 0.00 0.02 0.01 89 1019.1
20190318123956 46 272 3.0 6.0 0.00 0.02 0.01 89 1019.2
20190318123456 46 257 3.0 8.0 0.00 0.02 0.01 89 1019.1
20190318122959 46 249 3.0 8.0 0.00 0.02 0.01 88 1019.2
20190318122456 46 247 3.0 8.0 0.00 0.02 0.01 88 1019.2
20190318121956 46 242 4.0 10.0 0.00 0.02 0.01 88 1019.3
20190318121459 46 242 4.0 10.0 0.00 0.02 0.01 88 1019.2
20190318120956 46 239 3.0 8.0 0.00 0.02 0.01 89 1019.2
20190318120456 46 253 3.0 8.0 0.00 0.02 0.01 89 1019.1
20190318115959 45 263 4.0 9.0 0.00 0.02 0.01 88 1019.1
20190318115456 45 262 4.0 9.0 0.00 0.02 0.01 88 1019.2
20190318114956 45 264 5.0 9.0 0.00 0.02 0.01 87 1019.2
20190318114500 46 270 5.0 9.0 0.00 0.02 0.01 86 1019.2
20190318113956 46 261 4.0 9.0 0.00 0.02 0.01 86 1019.2
20190318113456 46 241 4.0 9.0 0.00 0.02 0.01 86 1019.1
20190318112959 46 246 4.0 10.0 0.00 0.02 0.01 87 1019.2
20190318112456 46 260 4.0 10.0 0.00 0.02 0.01 88 1019.1
20190318111956 46 261 5.0 10.0 0.00 0.02 0.01 86 1019.1
20190318111459 45 257 6.0 13.0 0.00 0.02 0.01 86 1019.1
20190318110956 45 258 6.0 14.0 0.00 0.02 0.01 86 1019.1
20190318110456 45 254 5.0 14.0 0.00 0.02 0.01 86 1019.1
20190318105959 45 262 5.0 11.0 0.00 0.02 0.01 86 1019.0
20190318105456 45 271 6.0 13.0 0.00 0.02 0.01 86 1019.0
20190318104956 45 266 6.0 13.0 0.00 0.02 0.01 85 1019.0
20190318104459 46 265 6.0 13.0 0.01 0.02 0.01 86 1018.9
20190318103956 46 273 7.0 13.0 0.01 0.02 0.01 84 1018.9
20190318103456 46 273 8.0 13.0 0.01 0.02 0.01 83 1018.8
20190318102959 46 277 8.0 15.0 0.01 0.02 0.01 84 1018.7
20190318102456 46 280 8.0 16.0 0.01 0.02 0.01 84 1018.7
20190318101956 46 274 6.0 16.0 0.01 0.02 0.01 85 1018.6
20190318101458 46 261 4.0 9.0 0.01 0.02 0.01 86 1018.5
20190318100956 46 223 4.0 9.0 0.01 0.02 0.01 86 1018.5
20190318100455 47 216 5.0 10.0 0.01 0.03 0.01 87 1018.4
20190318095959 47 247 4.0 10.0 0.01 0.03 0.01 86 1018.3
20190318095456 47 269 5.0 12.0 0.01 0.03 0.01 87 1018.2
20190318094955 47 272 5.0 12.0 0.01 0.03 0.01 88 1018.2
20190318094459 46 266 3.0 9.0 0.00 0.02 0.00 90 1018.2
20190318093955 46 241 2.0 6.0 0.00 0.02 0.00 90 1018.2
20190318093456 45 233 2.0 6.0 0.00 0.02 0.00 89 1018.2
20190318092959 44 225 3.0 6.0 0.00 0.02 0.00 89 1018.2
20190318092456 44 229 3.0 6.0 0.00 0.02 0.00 88 1018.2
20190318091956 44 241 3.0 6.0 0.00 0.02 0.00 88 1018.3
20190318091459 44 239 3.0 7.0 0.00 0.02 0.00 88 1018.2
20190318090956 44 230 3.0 8.0 0.00 0.02 0.00 88 1018.1
20190318090455 44 240 3.0 8.0 0.00 0.03 0.00 87 1018.1
20190318085959 44 242 3.0 9.0 0.00 0.03 0.00 87 1018.1
20190318085456 44 241 4.0 9.0 0.00 0.03 0.00 87 1018.1
20190318084957 44 263 4.0 9.0 0.00 0.03 0.00 88 1017.9
20190318084459 44 277 4.0 9.0 0.00 0.03 0.00 88 1017.9
20190318083955 44 278 3.0 9.0 0.00 0.03 0.00 88 1017.8
20190318083456 44 271 3.0 9.0 0.00 0.03 0.00 88 1017.7
20190318082959 44 270 3.0 8.0 0.00 0.03 0.00 88 1017.7
20190318082456 43 271 3.0 7.0 0.00 0.03 0.00 88 1017.7
20190318081955 43 265 3.0 7.0 0.00 0.03 0.00 89 1017.7
20190318081459 43 266 3.0 10.0 0.00 0.03 0.00 89 1017.6
20190318080956 43 271 4.0 10.0 0.00 0.03 0.00 89 1017.6
20190318080455 43 278 5.0 10.0 0.00 0.03 0.00 90 1017.5
20190318075959 43 279 4.0 10.0 0.00 0.03 0.00 91 1017.4
20190318075456 43 272 4.0 9.0 0.00 0.03 0.00 91 1017.3
20190318074956 43 262 4.0 9.0 0.00 0.03 0.00 92 1017.4
20190318074459 43 252 3.0 9.0 0.00 0.03 0.00 92 1017.3
20190318073955 42 237 2.0 7.0 0.00 0.03 0.00 92 1017.2
20190318073456 42 229 3.0 7.0 0.00 0.03 0.00 93 1017.2
20190318072959 42 233 3.0 8.0 0.00 0.03 0.00 93 1017.2
20190318072455 42 237 3.0 8.0 0.00 0.03 0.00 93 1017.1
20190318071956 42 239 2.0 5.0 0.00 0.03 0.00 92 1017.1
20190318071458 42 237 2.0 4.0 0.00 0.03 0.00 92 1017.1
20190318070955 42 239 2.0 4.0 0.00 0.03 0.00 92 1017.1
20190318070456 42 242 2.0 5.0 0.00 0.03 0.00 92 1017.1
20190318065958 42 245 2.0 5.0 0.00 0.03 0.00 92 1017.0
20190318065456 41 252 2.0 4.0 0.00 0.03 0.00 92 1017.0
20190318064955 41 254 2.0 4.0 0.00 0.03 0.00 92 1016.9
20190318064459 41 251 2.0 4.0 0.00 0.03 0.00 92 1016.9
20190318063955 41 243 2.0 6.0 0.00 0.03 0.00 92 1016.9
20190318063456 41 239 2.0 6.0 0.00 0.03 0.00 92 1016.9
20190318062959 41 239 2.0 5.0 0.00 0.03 0.00 92 1016.9
20190318062455 41 244 1.0 5.0 0.00 0.03 0.00 92 1016.9
20190318061956 41 252 2.0 4.0 0.00 0.03 0.00 92 1016.8
20190318061458 41 255 2.0 4.0 0.00 0.03 0.00 92 1016.8
20190318060956 41 264 3.0 8.0 0.00 0.03 0.00 92 1016.7
20190318060455 41 255 3.0 10.0 0.00 0.03 0.00 92 1016.8
20190318055959 41 235 2.0 10.0 0.00 0.03 0.00 92 1016.7
20190318055456 41 240 2.0 6.0 0.00 0.03 0.00 92 1016.7